Voltar ao catálogo

DELTA 1 DEB

AtivoPO
NORAD 19834·DEBRIS·🇺🇸 United States

Lançado Jul 23, 1972 de Vandenberg Space Force Base

Loading…

Próximas Passagens (próximas 24 horas)

TLE

AtualizadoSource: Space-Track

Época: Sep 14, 2026, 03:41 UTC

1 19834U 72058JM  26257.15386334  .00000824  00000-0  15208-3 0  9995
2 19834  98.6189  47.1996 0127025 134.0452 227.1296 14.63367540953049

Acompanhe DELTA 1 DEB em tempo real com AllMySat

Download on the App Store